Temp
4 2 3 4 5 5 6 5 6 6 6 5 5 6 6 6 6 6 7 7 7 7 7 7 6 6 6 6 6 5 5 4 4 3 3 3 3 3 3 3 3 3 3 2
2 2 4 4 5 4 4 4 5 5 5 4 5 5 6 6 6 6 6 6 7 7 7 7 6 6 6 5 5 5 4 3 3 3 3 2 2 2 3 3 3 2 2 2
3 4 3 3 3 3 3 4 5 5 5 4 4 5 5 6 5 6 6 6 6 6 6 7 6 6 6 5 5 4 3 3 2 2 2 2 2 2 2 2 2 2 1 1
2 3 3 3 3 3 4 4 3 3 4 5 6 8 8 8 6 6 6 6 7 7 6 6 6 6 5 5 4 4 3 2 2 2 2 2 2 2 2 2 1 1 1 1
3 2 2 3 3 3 3 3 3 3 3 4 5 5 6 7 7 5 7 7 7 7 7 7 6 5 5 4 4 3 2 2 1 1 1 1 1 1 1 1 1 1 0 -0
1 2 1 2 2 2 2 1 2 2 3 4 5 6 8 8 7 6 7 7 7 7 7 7 6 5 5 4 3 3 2 1 1 1 1 1 1 1 0 0 0 -0 -0 -1
-0 0 1 1 1 1 0 0 1 1 1 5 7 6 6 7 7 7 7 7 6 6 7 6 6 6 5 4 3 2 1 1 1 0 0 0 0 0 0 0 -1 -1 -1 -1
2 3 2 3 1 1 0 0 2 4 6 8 7 6 7 6 6 5 6 7 6 6 6 7 6 5 5 4 2 1 1 0 -0 -0 -0 -0 -0 -0 -0 -1 -2 -2 -2 -2
3 3 3 2 3 1 1 0 1 1 0 3 7 6 6 5 5 5 6 6 6 7 6 6 6 6 5 3 2 1 1 -0 -1 -1 -1 -1 -1 -1 -1 -2 -2 -2 -2 -2
1 1 1 1 1 1 1 1 0 -0 2 2 7 7 8 5 4 5 5 5 5 6 6 6 6 5 5 2 1 0 -0 -0 -1 -2 -2 -2 -1 -2 -2 -2 -2 -3 -3 -3
-0 -0 -0 -0 0 2 1 0 -0 -0 -0 3 5 7 4 4 3 4 4 5 5 5 5 5 5 5 4 2 0 0 -0 -1 -2 -3 -3 -2 -2 -2 -3 -3 -3 -3 -3 -4
1 -1 -1 -1 -0 0 0 -0 -0 -1 -1 -0 3 4 3 2 2 2 3 3 4 4 4 5 5 4 4 3 0 -1 -0 -2 -3 -4 -2 -2 -2 -3 -3 -3 -3 -3 -4 -4
-1 -1 -0 -0 -1 -1 -1 -1 -1 -1 -1 -1 0 2 2 2 2 2 2 2 3 4 4 4 4 4 3 1 -1 -1 -2 -3 -3 -2 -2 -3 -3 -3 -3 -3 -4 -4 -4 -5
-3 -2 -1 1 -0 -2 -2 -2 -2 -2 -2 -1 -1 -1 0 -0 -1 0 1 2 2 3 3 3 3 3 2 -1 -1 -1 -2 -2 -2 -2 -2 -2 -2 -3 -3 -4 -4 -4 -5 -5
-4 -3 -3 -2 -3 -2 -2 -2 -2 -3 -2 -2 -1 -1 -1 -1 -0 -1 -0 1 1 2 2 3 3 2 1 -0 -1 -2 -1 -1 -1 -2 -2 -3 -3 -3 -4 -4 -4 -5 -5 -6
-7 -5 -5 -4 -4 -3 -3 -1 -3 -2 -2 -3 -3 -2 -0 -2 -0 0 -1 0 1 1 2 1 1 1 0 0 -0 -1 -1 -2 -2 -2 -3 -3 -3 -3 -4 -4 -5 -5 -6 -6
-8 -7 -6 -4 -3 -2 -3 -2 -2 -0 -2 -2 -2 1 -1 -1 -1 -0 0 -1 -0 0 0 -1 -1 -0 -1 -0 -1 -2 -2 -2 -2 -3 -3 -3 -3 -4 -4 -5 -5 -6 -6 -6
-7 -7 -7 -5 -4 -3 -3 -3 -2 -2 -2 -1 -1 0 0 1 0 -1 -0 -0 -0 -0 -0 -0 -1 -1 -1 -2 -1 -2 -2 -2 -2 -2 -3 -3 -4 -4 -5 -5 -6 -6 -6 -7
-7 -7 -7 -6 -4 -4 -3 -3 -2 -2 -2 -1 -1 -0 -0 -0 -0 -0 -1 -1 0 -0 -0 -1 -1 -1 -1 -1 -1 -2 -2 -2 -2 -2 -3 -4 -4 -5 -5 -5 -6 -6 -7 -7
-7 -7 -7 -6 -5 -4 -2 -3 -3 -3 -2 -1 -1 -0 -0 -1 -0 1 -0 -0 -0 -0 -1 -1 -1 -1 -1 -1 -2 -2 -2 -2 -2 -3 -4 -4 -5 -5 -6 -6 -6 -7 -8 -8
-7 -7 -7 -7 -6 -4 -3 -3 -4 -3 -2 -1 -1 -1 -1 -0 0 -1 -0 -1 -1 -0 -0 -1 -1 -1 -1 -2 -2 -2 -2 -3 -3 -3 -4 -5 -5 -6 -6 -7 -7 -8 -8 -8
-6 -7 -6 -7 -6 -5 -3 -3 -4 -2 -2 -3 -2 -2 -2 -1 -1 -1 -1 -1 -1 -1 -1 -1 -1 -1 -2 -2 -2 -3 -3 -3 -3 -4 -5 -5 -6 -6 -6 -7 -8 -8 -8 -8
-6 -5 -5 -5 -4 -4 -4 -4 -4 -4 -3 -3 -3 -2 -2 -2 -2 -2 -1 -1 -1 -2 -2 -2 -2 -2 -2 -3 -3 -3 -3 -3 -4 -5 -6 -6 -6 -6 -7 -7 -8 -8 -8 -8
-6 -5 -6 -5 -5 -4 -4 -5 -4 -4 -4 -3 -3 -3 -3 -3 -2 -2 -2 -1 -1 -2 -2 -3 -3 -3 -3 -3 -3 -3 -4 -4 -5 -6 -6 -6 -7 -7 -7 -8 -8 -8 -9 -9
-7 -6 -5 -4 -5 -4 -5 -5 -4 -4 -4 -4 -4 -3 -3 -3 -3 -2 -2 -2 -2 -3 -3 -3 -3 -4 -4 -4 -4 -4 -4 -5 -6 -6 -6 -7 -7 -7 -8 -8 -8 -9 -9 -9
-7 -6 -6 -5 -5 -6 -6 -6 -6 -5 -5 -5 -5 -4 -3 -3 -3 -3 -3 -3 -3 -3 -4 -4 -4 -4 -5 -4 -5 -5 -6 -6 -6 -7 -7 -7 -7 -8 -8 -9 -9 -9 -9 -10
Height
3092 3092 3089 3092 3091 3093 3093 3094 3094 3094 3094 3090 3090 3088 3088 3087 3087 3090 3090 3090 3093 3096 3098 3099 3102 3104 3106 3108 3109 3111 3113 3115 3116 3116 3117 3118 3118 3118 3116 3114 3112 3108 3105 3101
3089 3079 3087 3089 3089 3088 3087 3087 3086 3087 3087 3086 3083 3079 3080 3080 3077 3080 3082 3083 3085 3088 3087 3091 3093 3097 3099 3102 3103 3105 3107 3109 3110 3111 3112 3112 3113 3111 3110 3108 3105 3102 3098 3095
3078 3077 3079 3080 3081 3083 3081 3081 3082 3081 3081 3078 3076 3065 3068 3069 3070 3068 3071 3073 3075 3076 3079 3082 3086 3089 3092 3094 3097 3099 3101 3102 3104 3105 3106 3106 3106 3105 3104 3102 3100 3096 3092 3089
3067 3073 3073 3072 3069 3076 3071 3078 3077 3075 3075 3068 3070 3048 3053 3056 3055 3055 3060 3062 3064 3066 3069 3073 3077 3081 3084 3087 3089 3091 3094 3096 3098 3100 3101 3101 3100 3100 3099 3096 3093 3090 3087 3084
3044 3060 3062 3060 3062 3068 3061 3072 3072 3070 3067 3065 3058 3059 3041 3046 3045 3045 3047 3050 3054 3057 3061 3065 3069 3074 3077 3080 3083 3085 3087 3090 3092 3094 3095 3095 3095 3094 3093 3090 3087 3084 3081 3077
3045 3054 3053 3054 3057 3059 3062 3064 3064 3063 3062 3053 3048 3053 3015 3031 3031 3035 3037 3041 3045 3049 3053 3056 3060 3064 3068 3072 3075 3078 3081 3084 3087 3089 3090 3090 3090 3088 3086 3084 3081 3078 3074 3073
3042 3038 3043 3046 3049 3051 3052 3058 3056 3056 3053 3029 3038 3038 3018 3023 3027 3028 3029 3032 3036 3041 3044 3046 3049 3054 3059 3063 3067 3071 3075 3079 3082 3084 3085 3085 3083 3082 3080 3078 3075 3073 3071 3069
3034 3035 3034 3032 3032 3037 3040 3046 3041 3035 3026 3018 3026 3014 3018 3018 3019 3021 3024 3025 3028 3030 3034 3038 3041 3046 3051 3056 3061 3066 3070 3074 3077 3080 3080 3079 3078 3077 3075 3073 3071 3070 3067 3065
3029 3027 3029 3028 3025 3031 3031 3030 3033 3034 3030 3027 3012 3009 3012 3013 3014 3015 3017 3019 3020 3023 3026 3030 3034 3038 3043 3048 3054 3060 3064 3068 3072 3074 3073 3073 3074 3072 3070 3069 3068 3065 3063 3060
3024 3023 3023 3022 3021 3022 3022 3024 3026 3024 3020 3015 2998 3001 3003 3007 3008 3009 3012 3014 3014 3016 3018 3022 3025 3030 3035 3041 3048 3054 3059 3063 3066 3067 3068 3068 3069 3067 3065 3065 3062 3060 3058 3055
3019 3018 3016 3016 3013 3014 3017 3016 3014 3015 3015 3007 2998 2997 2997 3000 3003 3004 3005 3006 3007 3010 3012 3014 3018 3021 3026 3032 3040 3047 3053 3058 3060 3061 3062 3063 3062 3061 3061 3059 3057 3056 3053 3050
3016 3012 3010 3010 3010 3008 3007 3005 3007 3004 3006 3005 3002 2999 2996 2998 2999 3000 3001 3002 3002 3004 3006 3008 3012 3015 3020 3024 3031 3040 3048 3052 3054 3055 3057 3058 3057 3055 3054 3053 3052 3050 3047 3045
3011 3007 3005 3003 3005 3001 3000 3001 3001 2999 2998 2996 2997 2993 2993 2995 2996 2996 2996 2998 2999 3001 3003 3005 3006 3007 3011 3017 3026 3036 3042 3045 3047 3050 3051 3051 3050 3050 3049 3048 3047 3045 3043 3041
3001 3000 2998 2995 2996 2996 2996 2996 2996 2994 2996 2988 2988 2989 2990 2990 2992 2994 2995 2996 2995 2995 2995 2997 2998 3000 3004 3013 3024 3033 3036 3039 3041 3044 3045 3045 3046 3045 3044 3043 3041 3039 3038 3035
2994 2992 2992 2990 2992 2991 2991 2991 2992 2992 2990 2990 2988 2988 2988 2986 2990 2991 2992 2993 2992 2993 2993 2994 2994 2997 3002 3012 3022 3027 3030 3034 3037 3038 3039 3040 3041 3040 3038 3037 3036 3034 3031 3030
2987 2991 2987 2983 2986 2987 2984 2982 2982 2985 2986 2985 2985 2981 2983 2982 2983 2985 2989 2988 2989 2990 2992 2994 2997 3002 3007 3012 3018 3023 3027 3030 3032 3032 3033 3033 3035 3034 3032 3031 3029 3028 3026 3026
2986 2986 2986 2980 2981 2980 2978 2971 2974 2975 2975 2976 2979 2978 2981 2980 2980 2981 2981 2982 2985 2989 2991 2994 2998 3003 3007 3010 3014 3018 3020 3023 3024 3025 3026 3027 3028 3027 3026 3024 3023 3023 3022 3021
2977 2982 2983 2978 2978 2974 2969 2968 2969 2970 2971 2973 2973 2973 2975 2976 2976 2974 2976 2977 2981 2986 2988 2990 2994 2998 3002 3005 3008 3011 3013 3015 3017 3018 3020 3021 3021 3020 3019 3018 3018 3017 3016 3016
2970 2974 2977 2975 2973 2970 2966 2968 2968 2968 2968 2969 2968 2968 2968 2969 2968 2967 2970 2973 2976 2979 2983 2988 2990 2993 2996 2998 3002 3004 3007 3009 3011 3012 3013 3014 3014 3014 3013 3012 3012 3012 3011 3011
2962 2964 2969 2970 2970 2966 2962 2964 2964 2965 2961 2965 2964 2962 2963 2963 2961 2963 2967 2968 2970 2973 2976 2980 2983 2987 2990 2993 2995 2998 3000 3002 3004 3006 3007 3007 3008 3007 3007 3006 3006 3006 3006 3006
2955 2957 2958 2959 2961 2956 2953 2959 2962 2962 2960 2959 2958 2957 2957 2956 2958 2959 2960 2963 2965 2968 2971 2975 2977 2981 2984 2986 2989 2991 2994 2996 2998 2998 3000 3001 3000 3000 3000 3000 3000 3001 3001 3001
2949 2952 2952 2954 2955 2950 2945 2949 2951 2950 2953 2953 2953 2952 2952 2952 2952 2952 2953 2955 2958 2962 2965 2968 2971 2975 2978 2980 2983 2986 2988 2990 2991 2992 2994 2994 2994 2994 2994 2994 2995 2995 2995 2996
2944 2943 2944 2944 2940 2940 2938 2941 2941 2942 2944 2945 2946 2948 2948 2948 2949 2949 2949 2950 2951 2955 2959 2962 2966 2969 2973 2976 2978 2980 2982 2983 2985 2986 2987 2987 2988 2988 2988 2989 2989 2989 2990 2990
2935 2937 2937 2937 2932 2934 2934 2936 2935 2937 2937 2938 2939 2941 2942 2943 2944 2945 2945 2947 2948 2951 2955 2959 2963 2966 2969 2971 2973 2975 2976 2977 2978 2979 2980 2981 2981 2982 2983 2983 2984 2984 2985 2985
2929 2931 2930 2927 2926 2928 2927 2926 2925 2926 2926 2931 2933 2935 2937 2938 2940 2940 2941 2944 2946 2949 2953 2957 2960 2962 2964 2966 2967 2969 2970 2971 2972 2973 2974 2975 2976 2977 2977 2977 2978 2978 2979 2979
2922 2923 2923 2923 2925 2923 2923 2920 2916 2915 2919 2923 2926 2929 2930 2931 2934 2937 2938 2941 2944 2948 2951 2954 2956 2958 2959 2960 2961 2962 2964 2966 2967 2968 2969 2969 2970 2971 2971 2972 2972 2972 2973 2974
Wind_Speed
23 24 28 27 25 24 21 20 22 20 17 23 22 27 26 31 34 33 34 36 33 31 32 34 35 33 31 29 28 26 25 24 23 21 20 18 16 15 16 21 24 29 31 32
25 36 28 24 21 24 24 26 28 26 24 25 29 34 29 29 34 36 37 38 38 37 40 37 38 35 34 31 31 29 27 26 24 22 20 18 15 14 17 22 26 29 31 31
31 28 22 25 26 27 29 28 26 27 24 27 29 39 35 36 36 38 38 37 38 40 40 41 38 36 35 33 31 30 28 27 25 22 18 16 14 16 19 23 26 28 29 30
36 35 37 31 33 28 36 22 25 26 24 25 16 31 29 26 40 41 44 41 40 41 42 43 41 39 36 34 32 31 29 28 25 21 17 14 13 16 19 24 25 25 27 29
47 25 27 38 38 28 38 23 28 24 26 28 35 26 36 33 35 35 37 45 43 40 41 40 41 39 37 35 32 32 30 29 25 20 17 12 14 17 21 22 23 25 26 27
39 32 24 25 25 28 27 21 22 19 19 23 32 27 43 35 34 33 27 39 41 41 39 43 44 43 41 38 35 33 32 30 24 20 14 12 14 18 20 21 22 23 25 27
32 41 38 32 26 23 21 22 5 9 9 15 16 24 43 11 11 24 19 25 32 38 39 40 48 47 45 42 38 36 34 28 22 17 14 13 15 18 20 21 21 22 24 25
19 14 22 28 46 38 31 33 15 11 15 19 30 20 24 23 19 23 23 20 24 32 39 35 42 47 48 45 39 35 33 27 21 22 12 12 16 19 20 19 20 22 23 24
15 25 15 17 13 27 32 40 41 23 16 9 22 30 23 23 17 16 18 22 23 25 34 38 37 40 44 46 40 36 36 27 23 13 10 14 20 21 18 19 20 21 22 23
20 18 18 14 14 23 35 24 16 22 6 8 22 28 23 13 14 19 22 23 26 28 30 34 39 39 42 43 41 41 35 27 17 9 12 16 20 18 18 20 20 21 22 22
20 20 14 13 17 22 30 36 19 16 14 5 12 13 10 16 18 21 20 20 23 26 27 28 27 33 40 44 42 42 36 27 14 12 14 19 18 19 20 21 22 22 22 21
22 14 17 19 14 21 26 22 37 10 7 16 20 12 7 11 10 3 8 15 18 21 24 25 26 25 30 39 46 43 32 22 18 15 21 20 20 21 22 22 22 22 21 20
22 18 20 17 13 17 19 24 30 27 32 17 7 9 20 15 12 12 17 19 18 21 22 27 32 34 34 39 42 41 31 24 22 24 22 21 20 24 24 23 22 22 21 19
16 23 24 21 10 9 8 8 15 18 7 11 19 10 19 19 5 5 7 13 18 20 21 26 29 29 32 40 41 33 29 25 27 23 23 22 24 26 25 23 22 21 20 16
10 15 21 23 19 20 23 19 18 17 19 14 5 14 15 17 15 10 20 19 14 11 12 15 18 23 32 37 36 27 27 25 26 26 24 25 26 27 25 23 22 21 18 16
22 10 11 19 17 21 25 27 21 21 28 21 20 28 25 16 16 14 22 24 24 22 21 19 21 21 23 19 23 21 17 20 26 28 27 27 28 27 25 23 22 20 18 17
29 22 14 11 7 14 15 29 26 24 22 21 22 22 15 12 14 18 17 22 25 22 22 25 21 23 18 21 21 23 24 23 25 26 29 29 28 27 25 23 22 20 18 17
27 23 13 19 18 10 7 9 11 18 17 18 23 16 7 13 14 16 13 17 23 29 30 28 28 26 24 19 23 24 21 25 26 26 29 29 28 26 24 23 21 19 17 17
31 25 17 11 18 22 26 14 6 11 16 15 22 18 21 21 20 24 24 23 26 21 28 30 32 26 26 20 24 24 24 27 29 27 27 28 27 25 23 22 20 18 17 17
30 32 25 21 17 8 20 4 4 10 23 18 19 10 8 13 18 19 20 22 22 26 28 34 34 27 29 28 25 29 27 27 25 26 27 27 25 23 23 21 19 18 17 16
22 26 30 30 21 26 38 29 21 16 18 7 9 16 18 19 18 19 17 23 24 23 25 32 31 29 28 26 23 23 20 21 24 26 26 24 24 23 22 20 19 18 17 17
16 15 20 26 22 24 18 16 26 24 15 20 20 19 14 17 18 20 22 23 26 27 27 26 28 28 25 23 21 21 21 22 24 25 23 23 22 21 20 20 19 18 16 16
26 26 17 17 19 19 15 15 17 19 22 22 21 14 17 21 19 13 15 18 19 23 25 24 22 20 19 19 19 20 21 23 23 21 21 21 20 19 20 19 18 17 17 17
22 21 19 16 23 26 26 26 27 28 27 21 17 16 21 20 21 17 16 16 15 17 18 18 16 16 16 19 20 21 21 21 20 20 20 19 18 19 19 19 18 18 18 19
17 19 26 30 28 22 22 23 28 31 26 23 18 18 20 23 17 13 19 19 18 18 17 15 14 15 17 18 20 19 19 19 19 19 18 18 19 19 20 20 19 19 20 20
18 22 24 19 14 16 14 15 15 17 25 20 14 15 15 20 25 16 19 21 20 18 16 15 16 16 16 17 17 17 17 17 18 19 19 19 20 21 21 20 20 20 21 22
Wind_Direction
256 236 233 233 238 241 253 262 263 258 251 263 262 252 244 253 247 236 236 238 239 242 241 239 233 231 233 234 232 235 236 238 238 237 239 248 260 281 304 316 323 325 323 321
236 243 241 244 241 246 248 255 260 268 264 263 265 259 251 238 250 241 240 241 241 237 238 240 235 232 231 232 233 235 236 237 236 235 240 249 267 291 310 317 322 323 321 321
237 246 236 236 249 249 250 251 262 267 274 267 271 267 256 246 241 242 237 238 238 238 241 240 236 233 232 233 235 234 234 234 234 234 240 254 280 300 308 315 319 321 320 317
250 252 243 250 250 241 252 253 266 269 268 269 266 275 258 255 240 242 240 238 236 234 234 236 236 232 233 233 234 234 233 232 231 233 242 259 284 298 309 314 317 317 314 313
241 247 242 241 243 235 252 261 263 264 263 270 258 264 266 248 237 235 239 238 236 237 240 233 237 234 235 235 236 234 232 230 229 232 242 262 284 305 311 313 314 313 313 316
241 239 239 242 242 238 251 258 254 255 254 255 250 242 271 247 234 235 250 240 236 236 240 234 231 234 233 232 232 232 230 226 224 230 242 270 296 308 308 310 312 313 317 316
242 245 243 242 243 239 228 228 219 219 204 248 249 232 238 228 252 237 248 238 238 233 235 237 233 231 231 233 232 228 225 219 222 234 255 277 303 304 305 310 313 314 314 310
221 242 229 234 233 235 221 207 211 233 236 251 234 244 254 250 235 236 234 243 222 228 232 239 235 232 234 235 229 225 219 210 240 243 253 288 300 302 305 310 309 307 308 307
248 254 244 241 236 214 235 221 237 253 252 276 240 246 261 263 251 229 219 225 229 232 231 232 234 232 235 233 228 221 213 237 226 231 275 296 299 294 302 304 303 307 306 305
253 259 255 248 225 224 225 233 218 221 215 231 247 249 249 263 246 243 236 236 236 235 235 230 228 232 236 230 223 213 214 213 217 244 280 292 282 296 303 301 306 308 307 306
244 252 251 235 227 231 224 226 211 222 226 245 266 266 254 249 243 234 231 223 227 235 239 236 232 228 227 224 217 214 210 216 221 261 276 267 286 297 298 306 309 306 306 305
252 256 256 249 255 252 241 236 232 206 197 227 261 264 160 152 140 99 233 224 232 239 238 239 241 232 230 221 212 206 207 214 246 273 254 269 285 300 305 306 304 304 306 303
254 248 260 258 248 243 243 254 256 248 242 235 229 220 234 244 265 289 271 264 248 245 243 238 238 235 222 209 202 199 210 226 272 240 252 269 290 299 301 300 299 303 302 296
231 243 240 255 271 257 263 263 258 259 253 261 224 267 254 246 210 244 236 238 241 237 238 238 234 224 203 193 195 200 221 238 237 243 254 271 283 293 296 296 299 299 296 291
212 247 243 249 259 266 268 258 285 288 253 261 285 245 235 264 288 246 250 251 242 235 235 218 204 193 175 175 189 215 225 233 240 247 257 265 276 289 294 295 295 295 294 287
309 280 283 270 266 257 265 267 261 258 260 266 274 268 264 270 289 265 250 247 250 236 200 186 166 169 172 188 200 211 230 248 253 251 252 262 274 287 290 292 294 292 287 278
277 290 302 281 319 273 263 258 248 264 254 250 252 287 258 271 269 265 259 248 218 192 193 196 199 188 203 205 206 224 236 247 246 248 250 260 273 284 287 291 291 285 279 273
256 267 266 282 301 270 303 299 240 244 248 243 253 259 272 288 257 245 235 224 214 212 215 207 199 206 199 215 228 228 236 242 247 255 251 260 273 281 285 288 285 279 276 270
236 236 253 259 272 280 284 280 235 272 273 258 257 258 279 285 271 240 226 227 214 211 212 210 218 220 223 232 231 232 241 250 252 255 254 263 273 279 283 283 278 274 269 264
228 232 228 246 252 261 249 284 287 309 268 256 258 264 286 274 261 264 240 228 230 221 209 217 222 229 231 232 241 241 252 253 249 252 258 266 273 276 277 276 272 268 262 261
208 220 221 232 236 254 258 259 264 253 265 283 217 275 275 264 270 260 254 228 225 224 226 219 219 231 235 240 245 248 241 244 248 255 262 267 269 271 272 269 265 260 260 259
205 208 219 230 237 246 261 229 225 261 267 262 267 273 267 254 252 244 240 239 232 225 224 231 231 236 239 241 234 234 243 249 255 259 262 263 265 266 266 261 258 259 259 260
242 231 242 224 235 248 255 231 239 245 253 264 265 249 246 257 257 257 241 237 229 222 218 221 223 214 213 223 232 240 246 253 255 254 255 258 261 263 261 258 256 258 260 261
238 234 232 246 257 257 258 260 254 260 275 263 244 240 253 254 255 240 233 221 210 197 191 192 202 213 225 235 240 246 252 254 252 252 253 255 258 258 258 258 258 259 259 260
239 242 252 264 265 273 277 276 269 265 248 225 234 245 254 243 232 223 218 210 205 196 197 203 214 229 238 245 249 253 254 248 247 248 250 254 257 258 258 257 258 259 262 263
228 236 243 259 278 267 271 301 317 254 217 218 228 234 241 237 230 235 211 201 195 195 204 223 238 245 250 253 253 250 246 247 249 251 252 255 258 258 257 257 258 261 264 264